STARLINK-32176, 60340

Orbit data source: Space-Track

STARLINK-32176, 60340 is a payload satellite owned by SpaceX/Seattle (US) in LEO that was launched on Fri, 02 Aug 2024 UTC via an FALCON 9 launch vehicle from the Air Force Eastern Test Range (AFETR). Payload-class satellites include a variety of spacecraft equipped with specific instruments for various scientific and technological missions. These include communications satellites like Starlink; space stations such as the ISS; scientific satellites like the Hubble; Earth observation satellites from companies like Planet Labs, Umbra, and HawkEye 360; GPS; miniature CubeSats for education and research; and military/defense satellites.

Loading next visibility...
Identifier
60340, 2024-136M
Orbit
LEO
Last TLE update
1 day ago
Origin
Manufacturer
SpaceX/Seattle
Mission
Operational Commercial Communications
Bus & Motor
STARLINK V2M, Unknown motor
Mass
730 kg wet, ~700 kg dry
Launch date (UTC)
2024-08-02 (9 months ago)
Launch vehicle
FALCON 9
Launch site
Air Force Eastern Test Range (AFETR)
Object type
Payload
Rocket body
Debris
Shape & HBR
Box + 2 Pan, 29 m
Radar Cross Section
33.884 m², Large (>1 m²)

Expand to show TLE details & history

TLE from 1 day ago
0 STARLINK-32176
1 60340U 24136M   25128.07551481  .00000831  00000-0  40194-4 0  9992
2 60340  53.1605  55.2138 0001315  68.6198 291.4943 15.30189226 44048
Epoch: 2025-05-08T01:48Z
Definitive object data (Epoch: 2025-05-08T01:48:44.479Z)
Latitude
-0.00003°
Longitude
161.87724°
Altitude
475.817 km
Speed
7.629 km/s
True Right ascension
03h 40m 51s
True Declination
0° 00' 00"
Sunlit
Object was in daylight at TLE epoch
Visualization TLE readout
Latitude
39.10564°
Longitude
-60.96437°
Altitude
478.134 km
Speed
7.632 km/s
Apparent Right ascension
08h 24m 02s
Apparent Declination
5° 10' 38"
Sunlit
Object is in full shadow
Visualization observer readout
Local Sidereal Time
14:44:01
Azimuth
277.173° WNW
Elevation
-0.494°
Doppler factor
1
Orbital elements
Apogee altitude
476.405 km
Perigee altitude
474.602 km
Semi-major axis
6,853.641 km
Eccentricity
0.0001315
Inclination
53.1605°
RAAN
55.2138°
Arg. of periapsis
68.6198°
True anomaly
291.48028°
Mean anomaly
291.4943°
Eccentric anomaly
291.48729°
Mean motion
3.82526 °/min
BSTAR
0.000040194
Orbital period
94.11 mins
Loading maneuver chart data...
Loading SW <> Apogee altitude chart data...
Loading historical data...
Loading historical data...
Loading historical data...
Loading historical data...
Loading historical data...
Loading historical data...
Loading historical data...

STARLINK-32176 Visibility forecast

Observer location: undefined°, undefined°

Span
Click to sort rows by Start time (UTC) header in descending order
Start Az.
Max El. time (UTC)
Max El. Az.
Max El.
End time (UTC)
End Az.
4 mins2025-05-09 20:17:09.486Z171.112° S2025-05-09 20:19:09.486Z137.122° SSE17.1°2025-05-09 20:21:09.486Z96.734° ESE
5 mins2025-05-09 21:55:09.486Z256.227° W2025-05-09 21:57:09.486Z322.66° NNW38.039°2025-05-09 22:00:09.486Z39.063° NE
5 mins2025-05-10 02:51:09.486Z332.881° NNW2025-05-10 02:54:09.486Z28.883° NE20.772°2025-05-10 02:56:09.486Z69.689° E
5 mins2025-05-10 04:30:09.486Z296.839° NW2025-05-10 04:32:09.486Z227.137° WSW41.047°2025-05-10 04:35:09.486Z145.208° SSE
|